星链-32287 (STARLINK-32287)

导读 | 星芒AI

STARLINK-32287 是 SpaceX Starlink 卫星互联网项目中的一颗低轨道卫星,属于第5批部署的星链卫星之一。该卫星于2022年发射,运行在约550公里高的近地轨道,旨在为全球用户提供高速互联网服务。它采用先进通信技术,支持Ka和Ku频段,具备自动避撞和推进能力,有助于提升网络覆盖与连接稳定性。作为星链计划的重要组成部分,STARLINK-3287 贡献于构建全球宽带网络,尤其服务于偏远和网络基础设施薄弱的地区。

基本信息
目录编号:
60358
目录名称:
STARLINK-32287
国际标识:
2024-138D
轨道中心:
EARTH
卫星名称:
星链-32287 (STARLINK-32287)
卫星全名:
星链-32287 (STARLINK-32287)
卫星状态:
在轨 (已飞行503 天)
发射日期:
2024-08-04 UTC
国别 :
美国 (US)
星等 :
--
轨道信息
数据来源 国际轨道数据
星历时间: 2025-12-20T06:37:29+0800
8小时前
查看轨道信息
半长轴: 6853.365km
偏心率: 0.000139
轨道倾角: 53.163°
近地点辐角 98.331°
升交点赤经 320.332°
平近点角 261.785°
近地点: 474.275km
远地点: 476.181km
周期: 94.106分钟
每日圈数: 15.301957
详细信息
卫星平台:
Starlink v2.0 mini
运营商:
太空探索技术公司
运营商所在国:
美国
制造商(研发单位):
太空探索技术公司
制造商所在国:
美国
使用方式:
暂无
卫星简介
星链(Starlink)计划是由太空探索技术公司(SpaceX)提出的一个巨型低轨卫星互联网星座项目,计划在2019年至2024年间在太空搭建由约1.2万颗卫星组成的“星链”网络,其中1584颗将部署在地球上空550千米处的近地轨道,并从2020年开始工作。该卫星仍在工作。
2D轨道图
3D轨道图
轨道高度分析图
轨道倾角分析图
轨道综合分析图
查看轨道综合分析图